{"data":{"norad_id":63640,"intl_designator":"2025-083G","name":"STARLINK-33859","alt_names":[],"object_type":"PAYLOAD","status":"ACTIVE","operator":null,"country":"US","launch_date":"2025-04-25","launch_site_code":"AFETR","launch_vehicle":null,"mission":null,"orbit_class":"UNKNOWN","rcs_meters":null,"size_class":null,"mass_kg":null,"dimensions":null,"purposes":["comms"],"wikipedia_slug":null,"has_3d_model":false,"image_url":null,"decayed_at":null,"tle_current":{"epoch":"2026-09-20T22:35:34.157184Z","epoch_age_seconds":114508,"freshness":"FRESH","line1":"1 63640U 25083G   26263.94136756  .00007586  00000+0  28489-3 0  9996","line2":"2 63640  43.0042 342.9161 0001771 272.0755  87.9894 15.27582189 79924","mean_motion":15.27582189,"eccentricity":0.0001771,"inclination_deg":43.0042,"raan_deg":342.9161,"arg_perigee_deg":272.0755,"mean_anomaly_deg":87.9894,"bstar":0.00028489,"rev_number":7992,"period_min":94.266613630961,"perigee_km":481.82742649721,"apogee_km":484.25765629077,"semimajor_km":6861.179541394,"source":"CELESTRAK","updated_at":"2026-09-21T09:00:35.051734Z"}}}